Stations météo

Publicité
Greifswald, Allemagne (10184): Température de l'air & dewpoint: 21.04.2018 02:00:00 - 27.04.2018 02:00:00 (CEST)Greifswald, Allemagne (10184): Température de l'air 5cm & Température de l'air -5cm: 21.04.2018 02:00:00 - 27.04.2018 02:00:00 (CEST)Greifswald, Allemagne (10184): Température de l'air -20cm & Température de l'air -100cm: 21.04.2018 02:00:00 - 27.04.2018 02:00:00 (CEST)Greifswald, Allemagne (10184): Vitesse du vent & gusts: 21.04.2018 02:00:00 - 27.04.2018 02:00:00 (CEST)Greifswald, Allemagne (10184): Direction du vent: 21.04.2018 02:00:00 - 27.04.2018 02:00:00 (CEST)Greifswald, Allemagne (10184): reduced air pressure: 21.04.2018 02:00:00 - 27.04.2018 02:00:00 (CEST)Greifswald, Allemagne (10184): visibility: 21.04.2018 02:00:00 - 27.04.2018 02:00:00 (CEST)Greifswald, Allemagne (10184): Ensoleillement: 21.04.2018 02:00:00 - 27.04.2018 02:00:00 (CEST)Greifswald, Allemagne (10184): Quantités de précipitations: 21.04.2018 02:00:00 - 27.04.2018 02:00:00 (CEST)
Date & Time tt [°C] td [°C] tt 5cm [°C] tt -5cm [°C] tt -20cm [°C] tt -100cm [°C] ff [km/h] ff [knt] fx [km/h] fx [knt] dd ppp [hPa] vv [km] sd [min] rr [mm]
27.04.2018 02:00:00 6,5 4,1 5,2 6,9 10,2 9,7 12 7 22 12 SW 1014,6 32 0 0,0
27.04.2018 01:00:00 7,0 3,7 5,3 7,5 10,6 9,7 14 7 23 13 WSW 1014,2 40 0 0,0
27.04.2018 00:00:00 7,6 4,1 6,0 8,2 11,0 9,7 15 8 25 14 WSW 1014,0 43 0 0,0
26.04.2018 23:00:00 8,2 5,4 6,9 9,1 11,3 9,7 10 6 19 10 SW 1013,6 45 0 0,0
26.04.2018 22:00:00 8,6 5,8 6,8 9,8 11,7 9,7 10 5 19 11 WSW 1013,6 46 0 0,0
26.04.2018 21:00:00 9,3 5,8 7,4 10,5 12,0 9,7 11 6 21 12 WSW 1012,9 28 0 0,0
26.04.2018 20:00:00 9,6 6,1 8,0 11,6 12,2 9,7 14 8 24 13 W 1012,1 56 2 2,7
26.04.2018 19:00:00 10,7 5,7 10,4 13,1 12,3 9,7 9 5 25 13 SW 1011,5 6 15 0,0
26.04.2018 18:00:00 11,3 5,7 12,7 13,7 12,2 9,7 16 9 31 17 W 1011,3 55 41 0,0
26.04.2018 17:00:00 8,9 5,9 9,1 12,2 12,3 9,7 12 6 44 24 SW 1011,3 25 0 0,4
26.04.2018 16:00:00 10,7 5,2 9,6 14,2 12,1 9,7 19 10 39 21 W 1010,9 17 6 0,0
26.04.2018 15:00:00 12,2 5,0 12,6 15,9 11,6 9,7 18 10 31 17 W 1010,2 45 27 0,0
26.04.2018 14:00:00 11,8 5,7 12,9 15,2 10,9 9,7 18 10 29 16 WSW 1010,1 38 31 0,0
26.04.2018 13:00:00 10,6 5,7 12,2 13,6 10,4 9,7 16 9 29 16 WSW 1010,3 30 28 0,0
26.04.2018 12:00:00 8,7 6,6 9,3 10,8 10,2 9,7 17 9 30 16 WSW 1010,3 16 0 0,9
26.04.2018 11:00:00 9,1 5,7 8,7 10,9 9,9 9,7 15 8 26 14 SW 1009,9 30 0 0,0
26.04.2018 10:00:00 9,5 5,4 11,0 10,2 9,6 9,7 9 5 27 14 SW 1009,6 30 23 0,0
26.04.2018 09:00:00 8,9 5,7 9,3 9,2 9,5 9,7 13 7 29 15 WSW 1009,5 24 25 0,0
26.04.2018 08:00:00 8,1 5,7 8,6 8,0 9,6 9,7 15 8 26 14 SW 1009,4 20 56 0,0
26.04.2018 07:00:00 6,7 4,7 5,9 7,2 9,8 9,7 10 6 28 15 SW 1009,1 22 32 0,0
26.04.2018 06:00:00 7,1 4,7 6,5 7,6 10,0 9,7 17 9 31 17 WSW 1008,7 29 0 0,0
26.04.2018 05:00:00 7,9 5,2 6,9 8,1 10,2 9,7 14 8 28 15 WSW 1008,3 29 0 0,0
26.04.2018 04:00:00 8,2 5,5 7,7 8,3 10,3 9,7 14 8 23 13 WSW 1008,5 33 0 0,0
26.04.2018 03:00:00 8,2 5,7 7,5 8,3 10,5 9,7 10 6 22 12 SW 1008,6 30 0 0,0
26.04.2018 02:00:00 7,9 5,7 7,0 8,2 10,8 9,7 9 5 19 10 SW 1008,8 33 0 0,0
26.04.2018 01:00:00 8,0 5,7 6,6 8,3 11,1 9,7 11 6 22 12 SW 1008,9 37 0 0,0
26.04.2018 00:00:00 7,6 5,2 5,9 8,5 11,5 9,7 10 5 19 10 SW 1009,1 45 0 0,0
25.04.2018 23:00:00 7,8 5,4 5,8 9,4 11,9 9,7 9 5 22 12 WSW 1009,1 50 0 0,1
25.04.2018 22:00:00 8,3 5,3 7,0 10,1 12,2 9,7 16 9 32 17 W 1009,1 14 0 0,4
25.04.2018 21:00:00 9,9 4,8 9,0 10,7 12,6 9,7 18 10 37 20 W 1008,4 55 0 0,0
25.04.2018 20:00:00 9,9 5,2 9,3 11,6 12,8 9,7 19 10 40 21 W 1008,1 58 9 0,0
25.04.2018 19:00:00 10,7 5,1 11,1 12,8 13,0 9,7 26 14 41 22 W 1007,5 44 36 0,0
25.04.2018 18:00:00 9,9 5,8 10,9 13,1 13,1 9,7 18 10 39 21 W 1007,1 50 12 0,0
25.04.2018 17:00:00 9,1 5,3 9,7 13,1 13,3 9,7 23 13 45 25 NW 1006,0 50 1 0,0
25.04.2018 16:00:00 8,9 7,3 8,8 13,8 13,5 9,7 29 15 55 30 NW 1004,1 8 0 0,0
25.04.2018 15:00:00 12,4 8,6 12,7 14,9 13,4 9,6 34 18 59 32 W 1002,2 30 1 0,0
25.04.2018 14:00:00 15,8 8,3 15,8 16,3 13,0 9,6 30 16 67 36 W 1000,7 29 27 0,0
25.04.2018 13:00:00 17,1 8,9 17,3 16,3 12,4 9,6 35 19 60 33 WSW 999,9 16 45 0,0
25.04.2018 12:00:00 16,5 10,4 18,0 14,9 11,9 9,6 21 11 51 28 SW 1000,0 10 21 0,0
25.04.2018 11:00:00 14,9 11,1 14,2 13,7 11,5 9,6 17 9 37 20 SW 1000,7 10 10 0,0
25.04.2018 10:00:00 13,7 11,2 13,2 12,3 11,2 9,6 20 11 37 20 SW 1001,0 6 6 0,0
25.04.2018 09:00:00 11,6 10,6 11,4 10,9 11,2 9,6 16 8 27 15 SSW 1001,9 4,5 0 0,4
25.04.2018 08:00:00 10,0 9,3 9,7 10,3 11,2 9,6 11 6 26 14 S 1002,8 4,0 0 0,8
25.04.2018 07:00:00 8,8 8,3 8,5 9,9 11,4 9,6 8 4 16 9 S 1003,9 4,0 0 1,3
25.04.2018 06:00:00 8,0 7,5 7,7 10,0 11,5 9,6 7 4 14 8 SE 1004,8 6 0 1,1
25.04.2018 05:00:00 8,0 7,1 7,6 10,2 11,7 9,6 5 3 8 4 SE 1006,5 8 0 1,7
25.04.2018 04:00:00 8,4 6,9 7,8 10,3 11,9 9,6 3 2 10 6 S 1007,6 5 0 0,8
25.04.2018 03:00:00 8,9 6,3 7,7 10,5 12,1 9,6 5 3 17 9 WSW 1008,3 15 0 0,3
25.04.2018 02:00:00 9,6 7,0 8,3 10,7 12,3 9,6 11 6 25 14 W 1009,2 15 0 0,2
25.04.2018 01:00:00 10,3 7,5 8,9 11,0 12,5 9,6 12 6 22 12 WSW 1010,0 12 0 0,0
25.04.2018 00:00:00 10,4 7,3 9,5 11,1 12,8 9,6 11 6 25 13 SW 1010,4 19 0 0,0
24.04.2018 23:00:00 10,6 7,0 9,3 11,6 13,1 9,5 13 7 24 13 WSW 1010,5 25 0 0,0
24.04.2018 22:00:00 11,0 7,0 10,2 12,2 13,4 9,5 11 6 23 12 SW 1010,9 30 0 0,0
24.04.2018 21:00:00 11,4 7,4 10,2 13,0 13,6 9,5 14 7 26 14 SW 1011,0 25 0 0,0
24.04.2018 20:00:00 12,2 7,4 11,4 14,0 13,7 9,5 12 7 29 16 WSW 1010,8 25 0 0,0
24.04.2018 19:00:00 12,8 7,5 12,4 15,1 13,6 9,5 18 10 40 21 WSW 1010,9 25 30 0,0
24.04.2018 18:00:00 13,8 7,7 14,8 15,4 13,5 9,5 24 13 53 28 WSW 1011,0 21 32 0,0
24.04.2018 17:00:00 13,4 7,4 13,8 15,3 13,3 9,5 29 16 49 26 WSW 1011,0 20 11 0,0
24.04.2018 16:00:00 13,4 7,8 13,6 14,7 13,1 9,5 26 14 43 23 WSW 1011,0 21 6 0,0
24.04.2018 15:00:00 13,1 8,0 12,8 14,4 12,9 9,5 26 14 49 26 WSW 1011,4 17 0 0,0
24.04.2018 14:00:00 14,1 7,8 15,6 14,3 12,7 9,4 19 10 38 20 WSW 1011,0 22 0 0,0
24.04.2018 13:00:00 13,8 7,5 14,3 14,2 12,4 9,4 27 14 45 24 WSW 1010,9 20 0 0,0
24.04.2018 12:00:00 13,2 7,5 13,8 13,6 12,1 9,4 19 10 47 25 WSW 1010,6 22 0 0,0
24.04.2018 11:00:00 13,5 6,7 14,5 13,6 11,8 9,4 22 12 41 22 SW 1010,7 15 7 0,0
24.04.2018 10:00:00 12,6 6,1 13,2 12,0 11,5 9,4 20 11 44 24 SW 1010,9 20 0 0,0
24.04.2018 09:00:00 11,1 6,1 11,3 10,6 11,5 9,4 14 7 31 17 SSW 1011,6 22 0 0,0
24.04.2018 08:00:00 9,7 4,9 9,4 9,6 11,6 9,4 13 7 23 12 SSW 1011,8 38 0 0,0
24.04.2018 07:00:00 8,7 4,1 8,1 9,2 11,8 9,3 13 7 25 13 SSW 1012,2 37 0 0,0
24.04.2018 06:00:00 8,6 3,7 7,8 8,9 12,1 9,3 11 6 20 11 SW 1012,6 38 0 0,0
24.04.2018 05:00:00 8,1 3,8 6,7 9,1 12,5 9,3 10 5 20 11 SW 1012,7 42 0 0,0
24.04.2018 04:00:00 8,2 3,7 6,5 9,4 12,9 9,3 11 6 21 12 SW 1013,0 50 0 0,0
24.04.2018 03:00:00 8,4 3,7 6,4 9,9 13,4 9,3 12 7 21 12 WSW 1013,4 65 0 0,0
24.04.2018 02:00:00 8,9 4,0 7,0 10,5 13,9 9,3 12 7 22 12 WSW 1013,4 58 0 0,0
24.04.2018 01:00:00 8,8 4,7 6,7 11,2 14,4 9,3 9 5 22 12 SW 1013,4 50 0 0,0
24.04.2018 00:00:00 10,0 4,6 8,0 12,0 14,9 9,3 14 8 27 14 W 1013,4 55 0 0,0
23.04.2018 23:00:00 10,5 4,8 8,8 12,9 15,5 9,2 17 9 31 17 W 1013,4 55 0 0,0
23.04.2018 22:00:00 11,3 5,3 9,5 14,0 16,0 9,2 16 9 29 16 W 1013,1 50 0 0,0
23.04.2018 21:00:00 12,1 5,5 10,0 15,4 16,4 9,2 18 10 32 17 WNW 1012,8 52 0 0,0
23.04.2018 20:00:00 13,7 5,6 12,2 17,2 16,7 9,2 19 10 42 23 WNW 1012,0 35 52 0,0
23.04.2018 19:00:00 15,1 6,0 15,1 18,9 16,7 9,2 26 14 41 22 WNW 1011,5 25 60 0,0
23.04.2018 18:00:00 15,7 7,8 17,9 20,0 16,6 9,2 24 13 42 23 NW 1011,4 20 49 0,0
23.04.2018 17:00:00 16,1 8,1 18,0 20,3 16,3 9,2 22 12 41 22 WNW 1010,9 20 39 0,0
23.04.2018 16:00:00 16,2 9,2 18,5 20,3 15,9 9,2 25 13 41 22 WNW 1010,9 15 40 0,0
23.04.2018 15:00:00 15,8 10,4 16,5 19,9 15,6 9,1 25 13 47 25 WNW 1010,7 20 32 0,0
23.04.2018 14:00:00 16,9 10,7 19,7 18,9 15,2 9,1 34 19 48 26 W 1010,3 10 11 0,0
23.04.2018 13:00:00 16,7 11,2 17,3 18,7 14,8 9,1 25 14 44 24 WNW 1009,7 20 8 0,0
23.04.2018 12:00:00 19,2 11,7 22,4 18,6 14,2 9,1 26 14 40 22 W 1008,9 30 48 0,0
23.04.2018 11:00:00 18,6 12,0 20,5 17,0 13,7 9,1 20 11 32 17 WSW 1008,3 30 32 0,0
23.04.2018 10:00:00 17,7 12,0 18,6 15,4 13,4 9,1 14 8 27 14 WSW 1008,2 20 26 0,0
23.04.2018 09:00:00 16,8 11,8 17,1 13,9 13,3 9,0 14 8 29 15 SW 1008,3 30 5 0,0
23.04.2018 08:00:00 15,8 11,1 15,2 13,0 13,3 9,0 15 8 25 13 SSW 1008,3 30 41 0,0
23.04.2018 07:00:00 14,0 9,9 12,3 12,0 13,5 9,0 11 6 19 10 SSW 1008,3 25 1 0,0
23.04.2018 06:00:00 13,5 9,2 11,1 12,3 13,7 9,0 11 6 20 11 S 1008,2 29 0 0,0
23.04.2018 05:00:00 13,6 8,8 12,1 12,4 14,0 9,0 8 5 15 8 S 1008,0 30 0 0,0
23.04.2018 04:00:00 13,2 8,5 10,5 12,6 14,2 9,0 9 5 21 11 SSE 1008,6 30 0 0,0
23.04.2018 03:00:00 13,8 8,4 11,4 12,8 14,5 9,0 10 6 23 12 S 1009,3 31 0 0,3
23.04.2018 02:00:00 12,2 7,6 10,7 12,8 14,9 8,9 5 3 13 7 SSE 1010,0 30 0 0,0
23.04.2018 01:00:00 10,2 7,4 7,8 13,2 15,4 8,9 11 6 22 12 E 1010,9 30 0 0,0
23.04.2018 00:00:00 10,7 6,9 8,9 14,0 15,8 8,9 15 8 22 12 E 1011,4 35 0 0,0
22.04.2018 23:00:00 11,1 6,8 10,3 14,5 16,4 8,9 10 5 19 10 E 1012,2 32 0 0,0
22.04.2018 22:00:00 11,2 6,4 8,6 15,5 16,9 8,9 17 9 22 12 E 1012,6 30 0 0,0
22.04.2018 21:00:00 11,6 6,6 9,5 17,0 17,5 8,9 16 9 24 13 E 1012,6 28 0 0,0
22.04.2018 20:00:00 13,3 6,6 11,4 19,0 17,8 8,9 15 8 28 15 E 1013,1 38 37 0,0
22.04.2018 19:00:00 14,7 6,4 15,3 21,0 17,8 8,8 23 12 32 17 E 1013,1 35 57 0,0
22.04.2018 18:00:00 15,9 6,6 18,0 22,6 17,6 8,8 19 11 28 15 ENE 1014,0 38 56 0,0
22.04.2018 17:00:00 17,1 8,6 20,9 23,5 17,1 8,8 21 12 28 15 NE 1014,5 40 60 0,0
22.04.2018 16:00:00 16,9 7,9 21,7 23,6 16,4 8,8 19 11 26 14 ENE 1015,4 18 60 0,0
22.04.2018 15:00:00 15,8 7,2 19,7 23,0 15,6 8,8 21 11 28 15 ENE 1016,1 23 60 0,0
22.04.2018 14:00:00 15,4 7,1 21,1 22,0 14,7 8,7 18 10 23 13 NE 1016,3 27 60 0,0
22.04.2018 13:00:00 16,7 7,4 22,1 20,5 13,8 8,7 10 5 19 10 ENE 1016,9 30 60 0,0
22.04.2018 12:00:00 16,5 4,0 21,1 18,8 12,8 8,7 6 3 16 9 W 1017,1 35 60 0,0
22.04.2018 11:00:00 15,8 4,5 19,1 16,2 12,1 8,7 7 4 14 8 W 1017,5 35 60 0,0
22.04.2018 10:00:00 14,4 5,3 17,4 13,6 11,7 8,7 6 3 12 7 W 1017,7 17 60 0,0
22.04.2018 09:00:00 12,4 6,1 14,0 11,2 11,6 8,6 6 3 10 5 W 1017,9 30 60 0,0
22.04.2018 08:00:00 10,3 4,7 11,2 9,3 11,8 8,6 3 2 8 5 W 1018,3 22 60 0,0
22.04.2018 07:00:00 7,6 4,3 5,5 8,6 12,1 8,6 4 2 8 5 SW 1018,3 25 24 0,0
22.04.2018 06:00:00 7,2 3,9 3,5 8,9 12,6 8,6 5 3 11 6 SW 1018,3 30 0 0,0
22.04.2018 05:00:00 7,0 3,6 2,4 9,4 13,0 8,6 5 3 10 5 SW 1018,6 38 0 0,0
22.04.2018 04:00:00 6,9 3,7 2,7 10,0 13,5 8,5 4 2 10 6 WSW 1018,9 35 0 0,0
22.04.2018 03:00:00 8,6 4,0 5,1 10,6 14,0 8,5 5 3 10 5 WSW 1019,0 33 0 0,0
22.04.2018 02:00:00 9,2 4,1 5,5 11,3 14,5 8,5 6 3 11 6 SW 1019,4 23 0 0,0
22.04.2018 01:00:00 9,8 3,8 6,0 12,0 15,0 8,5 6 3 8 5 SW 1019,4 13 0 0,0
22.04.2018 00:00:00 10,5 4,1 6,8 12,9 15,6 8,5 6 3 12 6 SW 1019,3 15 0 0,0
21.04.2018 23:00:00 11,1 4,1 7,2 13,8 16,2 8,4 8 5 12 7 WSW 1019,4 27 0 0,0
21.04.2018 22:00:00 12,1 4,4 7,2 15,0 16,7 8,4 8 4 12 7 W 1019,7 50 0 0,0
21.04.2018 21:00:00 13,3 3,8 9,2 16,4 17,2 8,4 8 4 14 7 W 1019,9 60 0 0,0
21.04.2018 20:00:00 14,6 4,0 11,9 18,4 17,5 8,4 11 6 22 12 W 1019,7 45 50 0,0
21.04.2018 19:00:00 15,9 4,9 16,1 20,2 17,6 8,4 15 8 29 15 WNW 1020,0 49 60 0,0
21.04.2018 18:00:00 16,3 2,5 18,8 21,3 17,4 8,3 19 10 31 17 NNW 1020,2 24 60 0,0
21.04.2018 17:00:00 16,5 3,5 19,1 22,1 17,1 8,3 17 9 32 17 NW 1020,5 30 60 0,0
21.04.2018 16:00:00 16,6 4,3 20,2 22,3 16,6 8,3 20 11 35 19 NW 1020,6 32 60 0,0
21.04.2018 15:00:00 16,4 3,7 19,9 22,1 15,9 8,3 24 13 35 19 NNW 1020,9 20 60 0,0
21.04.2018 14:00:00 17,0 5,7 21,3 21,3 15,2 8,3 18 10 31 17 NNW 1020,8 26 60 0,0
21.04.2018 13:00:00 16,1 5,2 20,2 20,0 14,5 8,2 21 11 35 19 NNW 1021,0 18 60 0,0
21.04.2018 12:00:00 16,7 3,2 20,5 18,5 13,9 8,2 19 10 37 20 NW 1020,9 25 60 0,0
21.04.2018 11:00:00 15,8 6,7 19,4 16,6 13,4 8,2 17 9 32 17 NW 1020,8 10 60 0,0
21.04.2018 10:00:00 14,6 7,4 17,8 14,6 13,1 8,2 15 8 24 13 NW 1020,3 11 60 0,0
21.04.2018 09:00:00 12,7 8,1 14,4 12,8 13,1 8,1 14 7 22 12 WNW 1019,8 5 60 0,0
21.04.2018 08:00:00 11,2 8,0 11,9 11,6 13,4 8,1 14 8 22 12 WNW 1019,3 3,0 60 0,0
21.04.2018 07:00:00 10,2 7,6 9,0 11,3 13,7 8,1 12 7 17 9 W 1018,7 2,5 4 0,0
21.04.2018 06:00:00 10,4 7,5 8,6 11,7 14,2 8,1 12 7 18 10 W 1018,1 3,3 0 0,0
21.04.2018 05:00:00 11,5 7,5 9,4 12,2 14,6 8,1 13 7 16 9 W 1017,9 4,7 0 0,0
21.04.2018 04:00:00 11,9 7,6 10,0 12,7 15,0 8,0 11 6 16 9 W 1017,9 5 0 0,0
21.04.2018 03:00:00 12,3 7,9 10,5 13,4 15,5 8,0 11 6 19 10 WSW 1017,7 6 0 0,0
21.04.2018 02:00:00 13,3 7,8 10,8 14,1 16,0 8,0 11 6 20 11 W 1017,9 8 0 0,0

tt = Température de l'air
td = dewpoint
tt 5cm = Température de l'air 5cm
tt -5cm = Température de l'air -5cm
tt -20cm = Température de l'air -20cm
tt -100cm = Température de l'air -100cm
ff = Vitesse du vent
fx = gusts
dd = Direction du vent
ppp = reduced air pressure
vv = visibility
sd = Ensoleillement
rr = Quantités de précipitations

stations d'obs. à proximité